GPS BIIF-10 (40730 NORAD) Tracking and Keplerian Element Data

This shows tracking and keplerian element data for the satellite.

Feedback or suggestion? Click here.




ElementValue
Catalog40730
NameGPS BIIF-10
Epoch Orbit2441
Epoch Day318.12018285
Epoch Year2018
RAAN19.213
Inclination55.5736
Eccentricity0.0038799
Argument of Perigee332.9726
Mean Anonmoly26.8768
Mean Motion2.00566385
Decay Rate-9.5E-07
L11 40730U 15033A 18318.12018285 -.00000095 00000-0 00000+0 0 9998
L22 40730 55.5736 19.2130 0038799 332.9726 26.8768 2.00566385 24414

Live tracking and technical data element details for GPS BIIF-10 (NORAD 40730). GPS BIIF-10 can be tracked NOW for your location showing map with azimuth and elevation plus other details from your city location.

Track the satellite on the map from your city or location and see movement details for azimuth, elevation, latitude, longitude, range, height, and movement on the map or in text.







IsCatalogInMostPopularTable: catalog: 40730, numindb: 115
Update: records affected: 1



GetName: 40730 GPS BIIF-10

Hit Count: updated at: Fri, 16 Nov 2018 02:53:48 GMT